DECAYED
Showing default

ASTROCAST-0301, 54370 (Decayed)

Orbit data source: Space-Track

ASTROCAST-0301, 54370 was a payload satellite owned by Astrocast (CH) in SSO that was launched on Sat, 26 Nov 2022 UTC via a PSLV-XL launch vehicle from the Sirharikota (SRI). Payload-class satellites include a variety of spacecraft equipped with specific instruments for various scientific and technological missions. These include communications satellites like Starlink; space stations such as the ISS; scientific satellites like the Hubble; Earth observation satellites from companies like Planet Labs, Umbra, and HawkEye 360; GPS; miniature CubeSats for education and research; and military/defense satellites.

Loading next visibility...
Identifier
54370, 2022-158K
Orbit
Decayed
Country
Flag of CHCH / SWTZ
Related business
Manufacturer
Astrocast
Mission
Decayed Commercial Communications
Bus & Motor
CUBESAT 3U, Unknown motor
Mass
4.5 kg wet, 4.5 kg dry
Launch date (UTC)
2022-11-26 (4 years ago)
Launch vehicle
PSLV-XL
Launch site
Sirharikota (SRI)
Object type
Payload
Rocket body
Debris
Shape & HBR
Box, 0.1 m
Radar Cross Section
0.035 m², Medium (>0.1 m² and < 1m²)

Expand to show TLE details & history
Last TLE update: 8 months ago

TLE from 8 months ago
0 ASTROCAST-0301
1 54370U 22158K   25306.10812519  .03163358  17035-1  37006-2 0  9994
2 54370  97.4449  74.4688 0009709 305.8399  54.1982 16.11792457164819
Epoch: 2025-11-02T02:35Z
TLE epoch observation values (Epoch: 2025-11-02T02:35:42.016Z)
Latitude
-0.00009°
Longitude
-6.08484°
Altitude
241.386 km
Speed
7.764 km/s
True Right ascension
04h 57m 52s
True Declination
0° 00' 00"
Sunlit
Object was in full shadow at epoch
Visualization orbit readout
Latitude
Unknown
Longitude
Unknown
Altitude
Unknown
Speed
Unknown
Apparent Right ascension
Unknown
Apparent Declination
Unknown
Sunlit
N/A
Visualization observer readout
Local Sidereal Time
21:54:57
Azimuth
Unknown
Elevation
Unknown
Doppler factor
Unknown
Orbital elements
Apogee altitude
245.201 km
Perigee altitude
232.353 km
Semi-major axis
6,616.914 km
Eccentricity
0.00097
Inclination
97.4449°
RAAN
74.4688°
Arg. of periapsis
305.8399°
True anomaly
54.2885°
Mean anomaly
54.1982°
Eccentric anomaly
54.24334°
Mean motion
4.03237 °/min
Orbital period
89.28 mins
BSTAR
0.0037006
Loading maneuver chart data...
Computing Atmospheric mass density...
Loading historical data...
Loading historical data...
Loading historical data...
Loading historical data...
Loading historical data...
Loading historical data...
Loading historical data...

Documentation

Showing up to 5 results
|